Location: Arrien
(43.3167°N, 0.1500°W)
Time: 12:41:48
(UTC+00:00)

Cosmos 2082 - Pass Details

Date: 25 May 2022
Orbit: 835 x 853 km, 71.0° (Epoch: 28 June)

Event Time Altitude Azimuth Distance (km) Brightness Sun altitude
Rises 20:05:57 0° 341° (NNW) 3,402 7.9 -6.6°
Reaches altitude 10° 20:08:37 10° 350° (N) 2,461 6.9 -6.9°
Maximum altitude 20:13:47 36° 56° (NE) 1,300 4.6 -7.7°
Enters shadow 20:18:55 10° 123° (ESE) 2,439 5.4 -8.4°
